EHI
0 0 0 0 0 0 0 0 0 0 0 0 0 0 0 0 0 0 0 0 0 0 0 0 0 0 0 0 0 0 0 0 0 0 0 0 0 0 0 0 0 0 0 0
0 0 0 0 0 0 0 0 0 0 0 0 0 0 0 0 0 0 0 0 0 0 0 0 0 0 0 0 0 0 0 0 0 0 0 0 0 0 0 0 0 0 0 0
0 0 0 0 0 0 0 0 0 0 0 0 0 0 0 0 0 0 0 0 0 0 0 0 0 0 0 0 0 0 0 0 0 0 0 0 0 0 0 0 0 0 0 0
0 0 0 0 0 0 0 0 0 0 0 0 0 0 0 0 0 0 0 0 0 0 0 0 0 0 0 0 0 0 0 0 0 0 0 0 0 0 0 0 0 0 0 0
0 0 0 0 0 0 0 0 0 0 0 0 0 0 0 0 0 0 0 0 0 0 0 0 0 0 0 0 0 0 0 0 0 0 0 0 0 0 0 0 0 0 0 0
0 0 0 0 0 0 0 0 0 0 0 0 0 0 0 0 0 0 0 0 0 0 0 0 0 0 0 0 0 0 0 0 0 0 0 0 0 0 0 0 0 0 0 0
0 0 0 0 0 0 0 0 0 0 0 0 0 0 0 0 0 0 0 0 0 0 0 0 0 0 0 0 0 0 0 0 0 0 0 0 0 0 0 0 0 0 0 0
0 0 0 0 0 0 0 0 0 0 0 0 0 0 0 0 0 0 0 0 0 0 0 0 0 0 0 0 0 0 0 0 0 0 0 0 0 0 0 0 0 0 0 0
0 0 0 0 0 0 0 0 0 0 0 0 0 0 0 0 0 0 0 0 0 0 0 0 0 0 0 0 0 0 0 0 0 0 0 0 0 0 0 0 0 0 0 0
0 0 0 0 0 0 0 0 0 0 0 0 0 0 0 0 0 0 0 0 0 0 0 0 0 0 0 0 0 0 0 0 0 0 0 0 0 0 0 0 0 0 0 0
0 0 0 0 0 0 0 0 0 0 0 0 0 0 0 0 0 0 0 0 0 0 0 0 0 0 0 0 0 0 0 0 0 0 0 0 0 0 0 0 0 0 0 0
0 0 0 0 0 0 0 0 0 0 0 0 0 0 0 0 0 0 0 0 0 0 0 0 0 0 0 0 0 0 0 0 0 0 0 0 0 0 0 0 0 0 0 0
0 0 0 0 0 0 0 0 0 0 0 0 0 0 0 0 0 0 0 0 0 0 0 0 0 0 0 0 0 0 0 0 0 0 0 0 0 0 0 0 0 0 0 0
0 0 0 0 0 0 0 0 0 0 0 0 0 0 0 0 0 0 0 0 0 0 0 0 0 0 0 0 0 0 0 0 0 0 0 0 0 0 0 0 0 0 0 0
0 0 0 0 0 0 0 0 0 0 0 0 0 0 0 0 0 0 0 0 0 0 0 0 0 0 0 0 0 0 0 0 0 0 0 0 0 0 0 0 0 0 0 0
0 0 0 0 0 0 0 0 0 0 0 0 0 0 0 0 0 0 0 0 0 0 0 0 0 0 0 0 0 0 0 0 0 0 0 0 0 0 0 0 0 0 0 0
0 0 0 0 0 0 0 0 0 0 0 0 0 0 0 0 0 0 0 0 0 0 0 0 0 0 0 0 0 0 0 0 0 0 0 0 0 0 0 0 0 0 0 0
0 0 0 0 0 0 0 0 0 0 0 0 0 0 0 0 0 0 0 0 0 0 0 0 0 0 0 0 0 0 0 0 0 0 0 0 0 0 0 0 0 0 0 0
0 0 0 0 0 0 0 0 0 0 0 0 0 0 0 0 0 0 0 0 0 0 0 0 0 0 0 0 0 0 0 0 0 0 0 0 0 0 0 0 0 0 0 0
0 0 0 0 0 0 0 0 0 0 0 0 0 0 0 0 0 0 0 0 0 0 0 0 0 0 0 0 0 0 0 0 0 0 0 0 0 0 0 0 0 0 0 0
0 0 0 0 0 0 0 0 0 0 0 0 0 0 0 0 0 0 0 0 0 0 0 0 0 0 0 0 0 0 0 0 0 0 0 0 0 0 0 0 0 0 0 0
0 0 0 0 0 0 0 0 0 0 0 0 0 0 0 0 0 0 0 0 0 0 0 0 0 0 0 0 0 0 0 0 0 0 0 0 0 0 0 0 0 0 0 0
0 0 0 0 0 0 0 0 0 0 0 0 0 0 0 0 0 0 0 0 0 0 0 0 0 0 0 0 0 0 0 0 0 0 0 0 0 0 0 0 0 0 0 0
0 0 0 0 0 0 0 0 0 0 0 0 0 0 0 0 0 0 0 0 0 0 0 0 0 0 0 0 0 0 0 0 0 0 0 0 0 0 0 0 0 0 0 0
0 0 0 0 0 0 0 0 0 0 0 0 0 0 0 0 0 0 0 0 0 0 0 0 0 0 0 0 0 0 0 0 0 0 0 0 0 0 0 0 0 0 0 0
0 0 0 0 0 0 0 0 0 0 0 0 0 0 0 0 0 0 0 0 0 0 0 0 0 0 0 0 0 0 0 0 0 0 0 0 0 0 0 0 0 0 0 0
0 0 0 0 0 0 0 0 0 0 0 0 0 0 0 0 0 0 0 0 0 0 0 0 0 0 0 0 0 0 0 0 0 0 0 0 0 0 0 0 0 0 0 0
Wind_Speed
5 4 4 6 7 6 8 8 8 7 7 8 6 6 5 4 4 3 3 3 3 3 4 3 3 3 4 4 3 3 3 4 5 5 4 4 4 4 4 4 5 4 4 4
4 3 3 6 9 9 9 8 9 7 9 7 4 3 3 3 4 4 4 4 4 4 4 4 4 4 4 4 4 3 4 5 4 4 3 4 5 4 4 4 4 4 5 5
4 4 5 8 9 10 7 7 8 10 9 3 2 3 4 3 4 4 4 4 4 4 4 5 5 4 4 5 3 3 4 4 4 4 4 4 4 4 5 5 4 5 5 5
2 2 6 7 1 6 6 6 7 5 4 4 4 3 2 3 3 3 3 3 4 4 4 4 4 4 4 3 3 4 4 4 4 4 4 4 4 5 5 4 5 5 5 6
1 3 9 8 3 4 5 5 5 6 4 2 1 1 2 2 2 3 3 3 4 4 4 4 4 4 3 3 3 4 5 5 5 4 5 4 5 6 5 4 5 5 4 5
3 4 7 5 2 2 3 4 4 5 5 3 3 1 5 3 2 2 3 3 3 3 3 3 4 3 3 4 4 5 6 5 5 4 5 5 6 5 4 4 5 5 5 5
5 6 10 7 2 3 3 6 3 5 4 4 5 6 4 3 3 3 3 4 3 3 3 4 4 2 3 4 6 6 5 5 4 4 5 6 5 4 4 4 4 4 5 5
6 7 11 4 6 7 7 2 3 3 4 4 5 4 3 3 4 4 3 3 3 3 4 4 3 3 4 6 6 5 4 5 5 5 5 4 4 4 4 4 4 4 4 5
11 10 5 5 7 5 3 4 3 4 3 4 4 4 4 3 4 4 4 4 3 3 4 4 3 3 5 6 5 4 4 5 5 5 4 4 4 4 3 4 4 4 4 5
6 9 6 5 5 3 4 4 4 4 4 4 4 4 4 4 4 4 4 4 3 3 4 5 5 4 6 6 4 4 5 5 5 4 4 4 4 4 4 4 5 5 5 6
7 6 3 5 6 6 4 3 3 3 4 5 5 5 4 4 4 4 4 3 3 4 5 6 6 6 6 5 4 4 5 5 5 4 4 4 4 5 6 6 7 7 6 5
9 7 6 6 6 5 5 6 6 5 4 4 5 5 4 4 4 4 4 4 4 5 6 6 6 7 6 5 4 4 5 5 4 4 4 4 4 5 8 9 12 14 12 10
8 5 6 5 4 5 6 6 6 6 5 4 3 4 3 4 4 4 4 5 5 6 6 6 6 7 6 5 4 5 6 5 4 4 4 4 4 4 5 6 9 12 13 13
7 4 5 5 5 5 5 5 4 3 3 3 3 3 3 3 4 5 6 6 6 6 7 6 7 8 7 5 5 6 6 6 6 5 5 5 5 5 5 5 5 5 7 12
7 7 7 5 4 4 3 3 3 3 2 2 3 3 4 4 5 6 6 6 6 6 7 7 7 8 6 5 5 6 5 5 5 5 5 5 4 4 4 5 5 5 4 6
5 4 5 5 5 5 3 4 4 4 4 3 4 4 5 5 6 7 6 5 5 7 8 7 8 8 6 5 5 5 5 8 7 4 4 4 4 5 5 5 5 5 6 5
5 5 5 5 6 5 5 6 6 5 4 5 5 5 4 5 6 7 7 6 6 8 8 8 9 8 6 5 6 5 5 6 8 5 5 5 5 5 5 5 6 6 6 6
9 9 7 6 6 5 5 5 5 5 5 5 4 4 4 5 7 8 8 7 7 8 8 8 8 7 6 6 5 4 4 5 4 5 5 5 5 5 5 6 6 7 5 6
6 6 6 6 5 5 5 5 5 5 4 4 4 5 6 6 7 8 7 7 8 10 9 6 8 7 6 7 6 4 4 5 5 5 5 7 7 5 5 6 6 6 5 5
3 3 4 4 4 4 4 4 4 4 4 4 4 6 7 7 7 7 7 7 8 8 7 8 7 6 6 6 7 4 5 5 6 5 5 5 5 5 5 6 6 6 5 5
3 3 3 3 3 3 4 4 4 5 5 4 5 7 8 8 7 6 6 8 8 7 7 10 6 5 5 6 7 4 5 5 6 6 6 5 5 6 6 5 6 5 5 5
3 3 3 3 3 4 4 3 4 5 5 6 6 7 7 8 8 7 8 8 8 9 6 5 5 7 8 9 5 5 5 6 6 5 6 6 6 6 6 6 5 5 5 5
3 3 4 4 4 4 4 4 5 5 6 7 7 8 8 8 6 6 8 6 5 9 7 5 8 12 13 7 4 5 6 6 6 6 6 6 6 6 6 6 5 5 5 4
3 4 4 4 3 3 5 6 5 5 6 7 8 8 8 7 6 6 7 10 11 12 7 9 13 14 12 5 4 5 6 6 6 6 6 6 5 5 5 5 5 5 5 5
4 4 4 4 4 5 6 6 5 6 7 6 8 8 7 6 7 7 6 7 11 11 7 9 13 14 8 5 5 6 5 6 6 6 6 6 6 5 5 5 5 5 4 4
5 5 5 6 6 5 5 4 5 5 5 6 7 6 5 5 6 7 6 7 9 11 8 6 6 8 5 5 6 6 6 6 7 6 6 6 6 6 5 5 6 5 4 4
5 4 4 5 5 5 5 5 6 7 6 6 8 7 6 5 5 6 7 6 6 6 6 5 5 5 5 5 6 6 5 5 5 5 5 5 5 5 5 6 5 4 4 3
Wind_Direction
253 260 239 237 237 213 202 200 207 234 233 248 240 230 237 239 236 235 246 246 240 242 249 256 258 256 250 251 249 236 232 242 248 248 243 241 239 235 228 221 223 223 225 229
296 286 261 259 243 226 223 220 231 251 264 251 245 216 228 236 231 236 246 246 247 249 253 257 257 256 253 252 249 234 237 247 253 252 247 241 239 235 229 228 227 222 226 227
278 315 337 271 234 201 206 208 198 225 242 243 234 229 230 234 230 235 246 246 248 250 253 258 258 253 249 249 247 238 243 254 255 249 248 246 241 235 231 229 224 227 230 226
280 346 250 248 227 180 196 230 211 221 236 222 227 223 218 209 210 239 248 250 253 252 258 262 261 262 258 255 248 245 248 252 254 251 252 253 244 239 236 227 224 229 232 231
190 261 277 287 244 173 182 255 218 211 224 222 181 77 291 245 209 223 237 244 243 245 249 259 266 266 267 267 260 259 258 257 254 248 252 252 248 245 236 225 230 230 230 228
187 231 248 252 207 161 118 267 231 184 193 190 138 203 262 252 248 257 262 253 252 261 265 269 272 269 267 270 268 263 260 259 255 246 246 249 249 247 236 226 233 234 237 230
207 239 264 253 195 125 173 242 200 179 185 180 192 213 237 264 266 262 268 269 268 270 268 268 274 269 264 270 264 262 264 265 262 252 246 248 249 242 235 231 235 236 242 241
182 212 252 214 148 185 215 211 175 183 192 199 220 241 255 264 268 274 279 280 272 268 276 278 275 266 272 271 269 271 268 267 266 261 254 250 246 246 234 225 233 241 246 256
196 215 240 189 200 216 181 184 196 196 210 203 220 239 251 258 266 269 267 270 268 265 281 288 277 255 264 271 278 279 275 272 270 268 259 249 239 241 238 226 230 240 239 251
237 255 249 235 235 232 202 202 204 199 203 203 225 240 253 260 267 274 274 272 271 277 283 286 283 270 260 271 276 273 274 276 273 268 266 256 244 233 228 227 232 237 239 246
244 260 274 252 225 220 221 217 215 214 212 216 223 238 241 253 264 267 274 272 264 263 269 275 281 280 276 272 271 271 273 273 273 265 262 262 252 239 235 231 224 231 236 234
228 219 206 229 223 209 206 216 216 215 222 223 215 229 241 250 254 260 268 272 272 270 270 276 281 281 280 270 258 259 270 272 268 268 265 260 265 277 253 245 252 249 246 242
233 228 221 233 227 210 208 214 214 212 215 228 231 223 229 244 254 258 266 270 269 269 271 275 279 279 278 270 257 251 257 264 265 262 260 259 256 259 278 275 257 255 253 251
230 225 239 230 223 215 210 211 205 207 214 217 224 230 233 244 258 265 266 265 269 274 275 273 276 276 275 266 259 257 258 259 259 256 253 253 250 248 250 261 274 273 260 257
230 220 225 226 214 210 202 187 187 216 227 237 230 237 243 250 260 266 270 273 278 278 276 274 274 277 276 264 260 260 260 259 255 255 253 251 249 247 248 249 256 266 272 267
229 228 223 215 214 212 201 196 206 226 231 237 245 249 249 252 260 270 274 272 273 277 278 276 273 275 275 265 262 262 258 260 261 257 256 253 248 247 248 248 252 253 255 257
202 218 217 221 223 221 214 212 216 227 233 241 247 254 262 270 277 279 281 275 263 265 269 268 270 275 270 259 254 257 258 262 262 260 252 249 249 248 248 248 250 253 253 249
213 213 205 205 211 219 226 224 223 228 234 240 250 258 262 266 272 279 283 287 285 281 272 261 261 267 264 258 252 251 252 256 253 252 254 253 254 250 250 251 252 255 260 257
217 214 210 209 207 208 218 227 232 234 239 240 245 254 259 261 264 271 279 282 282 284 282 273 272 269 267 264 262 251 250 256 260 258 254 261 265 254 250 251 253 253 254 253
215 210 209 213 210 208 220 231 235 244 246 240 249 261 269 269 267 270 272 270 260 257 269 278 278 269 264 263 261 250 247 252 258 261 258 254 256 258 255 254 254 254 252 250
217 214 211 214 228 233 227 226 229 247 255 246 246 257 266 272 272 266 268 279 275 262 263 272 269 265 263 263 263 251 247 250 254 257 258 258 259 260 259 256 256 255 253 251
220 219 228 228 233 250 251 240 239 248 258 259 257 258 265 273 274 268 253 253 268 277 276 265 262 264 268 271 256 250 251 252 255 257 257 256 257 259 260 257 256 254 251 248
229 229 232 234 236 247 260 256 248 248 254 259 261 261 261 263 261 264 277 267 261 273 272 261 266 272 278 274 254 252 254 254 256 256 256 255 255 255 257 257 255 252 250 246
242 242 243 246 245 255 265 266 259 254 255 260 259 257 257 266 269 249 249 271 278 279 271 268 274 279 283 267 254 255 255 255 256 257 256 255 254 254 254 253 253 251 246 243
243 246 249 247 249 252 256 263 268 267 265 264 265 260 250 238 249 265 264 265 273 281 275 274 278 281 276 256 252 253 253 252 254 256 253 252 251 251 250 248 248 247 243 239
244 245 245 242 244 251 254 255 259 264 264 270 274 267 258 250 248 256 262 263 264 273 273 268 269 273 263 255 253 252 251 259 264 258 253 253 250 248 248 248 245 241 239 235
253 254 258 263 260 247 243 245 252 260 258 258 270 273 268 264 261 259 261 263 265 264 265 265 263 259 258 257 256 253 252 250 249 250 251 250 247 245 245 243 242 237 231 225